GFSNW_prec_precacc12_216.txt.gz
Total_Precipitation_Accumulation
0.15 0.06 0.01 0.03 0.07 0.26 0.58 0.56 0.52 0.25 0.13 0.33 0.36 0.13 0.01 0.00 0.00 0.00 0.00 0.00 0.02 0.04 0.07 0.11 0.07 0.02 0.00 0.00 0.00 0.01 0.01 0.02 0.02 0.00 0.00 0.00 0.00 0.00 0.01 0.27 0.15 0.20 0.33 0.13
0.23 0.13 0.06 0.07 0.25 0.42 0.58 0.81 0.59 0.44 0.35 0.29 0.16 0.06 0.02 0.01 0.01 0.01 0.03 0.05 0.08 0.10 0.12 0.16 0.09 0.02 0.00 0.00 0.01 0.01 0.01 0.05 0.03 0.00 0.00 0.00 0.00 0.00 0.00 0.07 0.15 0.12 0.17 0.06
0.69 0.47 0.33 0.29 0.45 0.70 0.85 1.09 0.81 0.55 0.38 0.19 0.05 0.04 0.05 0.03 0.02 0.06 0.11 0.17 0.16 0.16 0.16 0.13 0.17 0.06 0.01 0.00 0.00 0.02 0.03 0.07 0.01 0.00 0.00 0.00 0.02 0.00 0.03 0.18 0.28 0.13 0.13 0.06
1.11 1.25 1.14 1.04 1.23 1.39 1.60 1.77 1.21 0.51 0.30 0.13 0.06 0.14 0.27 0.16 0.12 0.25 0.33 0.35 0.14 0.11 0.35 0.20 0.10 0.05 0.06 0.02 0.02 0.01 0.05 0.10 0.01 0.00 0.00 0.01 0.03 0.04 0.05 0.13 0.12 0.21 0.12 0.02
1.06 1.21 1.71 1.34 1.08 1.28 1.91 1.70 0.97 0.53 0.34 0.20 0.21 0.42 0.34 0.14 0.14 0.34 0.38 0.24 0.12 0.17 0.26 0.10 0.10 0.09 0.12 0.09 0.02 0.03 0.04 0.09 0.01 0.00 0.00 0.00 0.00 0.00 0.01 0.00 0.01 0.01 0.01 0.01
0.70 0.92 1.28 1.72 1.48 1.28 1.38 0.82 0.45 0.36 0.62 0.44 0.34 0.32 0.16 0.20 0.26 0.49 0.32 0.18 0.30 0.22 0.11 0.18 0.18 0.11 0.07 0.07 0.07 0.13 0.19 0.16 0.14 0.07 0.00 0.00 0.01 0.00 0.00 0.00 0.00 0.01 0.03 0.03
0.48 0.62 0.95 1.23 1.72 1.44 0.74 0.39 0.37 0.65 0.79 0.45 0.25 0.24 0.22 0.31 0.34 0.45 0.28 0.15 0.21 0.13 0.06 0.08 0.07 0.05 0.02 0.01 0.01 0.03 0.11 0.12 0.15 0.09 0.01 0.03 0.00 0.00 0.00 0.00 0.01 0.01 0.01 0.00
0.44 0.37 0.58 0.93 1.33 1.45 1.00 0.64 0.55 0.66 0.72 0.44 0.29 0.28 0.31 0.37 0.47 0.39 0.29 0.18 0.11 0.08 0.03 0.01 0.00 0.00 0.00 0.00 0.00 0.01 0.02 0.03 0.03 0.03 0.01 0.01 0.00 0.00 0.00 0.00 0.01 0.00 0.00 0.00
0.37 0.33 0.38 0.47 0.65 0.95 1.00 0.86 0.47 0.45 0.60 0.53 0.30 0.35 0.35 0.33 0.35 0.31 0.17 0.08 0.04 0.01 0.00 0.00 0.00 0.00 0.00 0.00 0.00 0.00 0.00 0.00 0.00 0.00 0.01 0.01 0.00 0.01 0.01 0.02 0.04 0.00 0.00 0.00
0.41 0.31 0.35 0.45 0.48 0.58 0.73 0.78 0.61 0.58 0.75 0.68 0.33 0.31 0.31 0.24 0.20 0.14 0.07 0.05 0.02 0.00 0.00 0.00 0.00 0.00 0.00 0.00 0.00 0.00 0.00 0.00 0.02 0.04 0.12 0.11 0.08 0.04 0.03 0.09 0.05 0.00 0.00 0.00
0.32 0.29 0.18 0.26 0.43 0.50 0.48 0.49 0.37 0.38 0.47 0.41 0.21 0.18 0.14 0.11 0.06 0.03 0.02 0.00 0.00 0.00 0.00 0.00 0.00 0.00 0.00 0.00 0.00 0.01 0.02 0.03 0.01 0.04 0.12 0.09 0.03 0.01 0.00 0.00 0.00 0.00 0.00 0.00
0.24 0.29 0.25 0.22 0.30 0.32 0.31 0.30 0.21 0.17 0.23 0.23 0.08 0.06 0.04 0.03 0.01 0.00 0.00 0.00 0.00 0.00 0.00 0.00 0.01 0.01 0.01 0.01 0.00 0.00 0.00 0.01 0.01 0.00 0.00 0.00 0.00 0.00 0.00 0.00 0.00 0.00 0.00 0.00
0.15 0.25 0.27 0.33 0.27 0.23 0.19 0.22 0.17 0.13 0.16 0.10 0.03 0.01 0.00 0.00 0.00 0.00 0.00 0.00 0.00 0.00 0.00 0.00 0.00 0.00 0.00 0.00 0.00 0.00 0.00 0.00 0.00 0.01 0.00 0.00 0.00 0.00 0.00 0.00 0.00 0.00 0.01 0.07
0.07 0.13 0.20 0.19 0.15 0.15 0.14 0.13 0.10 0.07 0.05 0.05 0.01 0.00 0.00 0.00 0.00 0.00 0.00 0.00 0.00 0.00 0.00 0.00 0.00 0.00 0.00 0.00 0.00 0.00 0.00 0.01 0.00 0.00 0.00 0.00 0.00 0.00 0.00 0.00 0.00 0.02 0.16 0.16
0.13 0.14 0.18 0.17 0.13 0.10 0.07 0.05 0.03 0.01 0.01 0.01 0.00 0.00 0.00 0.00 0.00 0.00 0.00 0.00 0.00 0.00 0.00 0.00 0.00 0.00 0.00 0.00 0.00 0.00 0.00 0.01 0.01 0.00 0.00 0.00 0.00 0.00 0.00 0.00 0.01 0.04 0.02 0.00
0.09 0.07 0.08 0.05 0.03 0.02 0.01 0.01 0.00 0.00 0.00 0.00 0.00 0.00 0.00 0.00 0.00 0.00 0.00 0.00 0.00 0.00 0.00 0.00 0.00 0.00 0.00 0.00 0.00 0.00 0.00 0.00 0.00 0.00 0.00 0.00 0.00 0.01 0.01 0.02 0.01 0.00 0.00 0.00
0.01 0.02 0.02 0.00 0.00 0.00 0.00 0.00 0.00 0.00 0.00 0.00 0.00 0.00 0.00 0.00 0.00 0.00 0.00 0.00 0.00 0.00 0.00 0.00 0.00 0.00 0.00 0.00 0.00 0.00 0.00 0.00 0.00 0.00 0.00 0.00 0.02 0.03 0.03 0.00 0.00 0.00 0.00 0.00
0.00 0.00 0.00 0.00 0.00 0.00 0.00 0.00 0.00 0.00 0.00 0.00 0.00 0.00 0.00 0.00 0.00 0.01 0.00 0.00 0.00 0.00 0.00 0.00 0.00 0.00 0.00 0.00 0.00 0.00 0.00 0.00 0.00 0.00 0.00 0.01 0.01 0.00 0.00 0.00 0.00 0.00 0.00 0.00
0.00 0.00 0.00 0.00 0.00 0.00 0.00 0.00 0.00 0.00 0.00 0.00 0.00 0.00 0.03 0.00 0.00 0.00 0.00 0.00 0.00 0.00 0.00 0.00 0.00 0.00 0.00 0.00 0.00 0.00 0.00 0.00 0.00 0.00 0.00 0.00 0.00 0.00 0.00 0.00 0.00 0.00 0.00 0.00
0.00 0.00 0.00 0.00 0.00 0.00 0.00 0.00 0.00 0.00 0.00 0.00 0.00 0.00 0.00 0.00 0.00 0.00 0.01 0.01 0.00 0.01 0.00 0.00 0.00 0.00 0.00 0.00 0.00 0.01 0.00 0.00 0.00 0.00 0.01 0.01 0.00 0.00 0.00 0.00 0.00 0.00 0.00 0.00
0.00 0.00 0.00 0.00 0.00 0.00 0.00 0.00 0.00 0.00 0.00 0.00 0.00 0.00 0.00 0.00 0.00 0.01 0.01 0.01 0.02 0.03 0.00 0.02 0.02 0.01 0.01 0.00 0.00 0.00 0.00 0.00 0.00 0.00 0.00 0.00 0.00 0.00 0.00 0.00 0.00 0.00 0.00 0.00
0.00 0.00 0.00 0.00 0.00 0.00 0.00 0.00 0.00 0.00 0.00 0.00 0.00 0.00 0.00 0.00 0.00 0.00 0.00 0.01 0.01 0.01 0.02 0.07 0.02 0.07 0.08 0.05 0.05 0.05 0.03 0.02 0.01 0.00 0.00 0.00 0.00 0.00 0.00 0.01 0.01 0.02 0.02 0.01
0.00 0.00 0.00 0.00 0.00 0.00 0.00 0.00 0.00 0.00 0.00 0.00 0.00 0.00 0.00 0.00 0.00 0.00 0.01 0.02 0.00 0.01 0.04 0.03 0.10 0.26 0.31 0.27 0.24 0.21 0.14 0.03 0.01 0.01 0.00 0.01 0.02 0.04 0.08 0.08 0.07 0.04 0.02 0.01
0.00 0.00 0.00 0.00 0.00 0.00 0.00 0.01 0.01 0.01 0.00 0.00 0.00 0.00 0.00 0.00 0.01 0.00 0.00 0.00 0.01 0.02 0.02 0.04 0.07 0.17 0.14 0.11 0.07 0.06 0.03 0.01 0.01 0.02 0.02 0.02 0.02 0.01 0.01 0.02 0.01 0.01 0.00 0.00
0.00 0.00 0.00 0.00 0.00 0.00 0.00 0.00 0.00 0.00 0.00 0.00 0.00 0.01 0.01 0.00 0.00 0.00 0.00 0.01 0.01 0.03 0.05 0.09 0.15 0.08 0.09 0.09 0.02 0.01 0.01 0.01 0.01 0.00 0.00 0.00 0.00 0.00 0.00 0.00 0.00 0.00 0.00 0.00
0.00 0.00 0.00 0.00 0.00 0.00 0.00 0.00 0.00 0.00 0.01 0.01 0.01 0.01 0.00 0.00 0.00 0.01 0.01 0.01 0.02 0.02 0.03 0.04 0.03 0.02 0.02 0.01 0.01 0.01 0.01 0.01 0.01 0.00 0.00 0.00 0.00 0.00 0.00 0.00 0.00 0.00 0.01 0.02
0.00 0.00 0.00 0.00 0.00 0.00 0.00 0.00 0.00 0.00 0.02 0.02 0.01 0.01 0.00 0.00 0.01 0.01 0.02 0.03 0.01 0.00 0.00 0.00 0.00 0.01 0.02 0.01 0.01 0.01 0.02 0.02 0.02 0.01 0.00 0.00 0.00 0.00 0.00 0.01 0.01 0.01 0.02 0.04

GFSNW_prec_precacc12_219.txt.gz
Total_Precipitation_Accumulation
0.35 0.20 0.06 0.01 0.02 0.03 0.10 0.16 0.23 0.10 0.06 0.17 0.19 0.08 0.01 0.01 0.00 0.00 0.00 0.00 0.00 0.00 0.00 0.02 0.03 0.01 0.00 0.00 0.00 0.01 0.01 0.03 0.02 0.00 0.00 0.00 0.00 0.00 0.01 0.29 0.15 0.19 0.30 0.12
0.39 0.33 0.22 0.03 0.04 0.06 0.10 0.31 0.29 0.30 0.25 0.19 0.11 0.04 0.01 0.01 0.01 0.01 0.02 0.01 0.00 0.01 0.02 0.08 0.06 0.02 0.00 0.00 0.01 0.02 0.02 0.07 0.05 0.00 0.00 0.00 0.00 0.00 0.00 0.11 0.21 0.16 0.20 0.07
0.70 0.46 0.41 0.23 0.10 0.17 0.34 0.59 0.49 0.40 0.34 0.17 0.05 0.03 0.04 0.01 0.01 0.02 0.03 0.04 0.03 0.06 0.09 0.09 0.12 0.05 0.02 0.01 0.01 0.06 0.06 0.11 0.02 0.01 0.00 0.00 0.02 0.01 0.04 0.20 0.30 0.13 0.13 0.05
1.08 1.14 0.98 0.70 0.55 0.63 0.91 1.16 0.80 0.33 0.21 0.12 0.06 0.11 0.21 0.10 0.06 0.13 0.17 0.19 0.08 0.07 0.33 0.21 0.09 0.03 0.05 0.05 0.07 0.05 0.10 0.14 0.01 0.00 0.00 0.01 0.04 0.06 0.08 0.16 0.13 0.26 0.12 0.02
0.94 1.13 1.59 1.35 0.88 0.82 1.38 1.29 0.75 0.41 0.25 0.14 0.16 0.30 0.23 0.07 0.05 0.21 0.27 0.17 0.07 0.13 0.25 0.11 0.13 0.12 0.12 0.14 0.06 0.05 0.08 0.13 0.01 0.00 0.00 0.00 0.00 0.00 0.01 0.00 0.01 0.01 0.00 0.00
0.65 0.92 1.25 1.89 1.78 1.18 1.15 0.70 0.40 0.32 0.49 0.33 0.25 0.24 0.11 0.12 0.18 0.42 0.26 0.15 0.27 0.23 0.10 0.20 0.25 0.18 0.14 0.13 0.11 0.16 0.23 0.17 0.14 0.07 0.00 0.00 0.01 0.00 0.00 0.00 0.00 0.00 0.01 0.01
0.45 0.60 0.94 1.29 2.10 1.65 0.71 0.36 0.32 0.58 0.72 0.40 0.22 0.21 0.20 0.26 0.30 0.46 0.35 0.19 0.25 0.21 0.13 0.20 0.16 0.11 0.05 0.03 0.04 0.07 0.15 0.14 0.18 0.09 0.01 0.03 0.00 0.00 0.00 0.00 0.00 0.00 0.01 0.00
0.45 0.41 0.59 1.00 1.53 1.90 1.09 0.63 0.53 0.65 0.71 0.43 0.26 0.24 0.29 0.37 0.49 0.46 0.41 0.29 0.21 0.20 0.13 0.07 0.03 0.01 0.00 0.00 0.01 0.03 0.06 0.06 0.04 0.03 0.01 0.01 0.00 0.00 0.00 0.00 0.00 0.00 0.00 0.00
0.48 0.44 0.47 0.57 0.82 1.33 1.56 0.94 0.49 0.47 0.66 0.60 0.30 0.36 0.40 0.41 0.47 0.47 0.37 0.27 0.18 0.08 0.05 0.04 0.03 0.00 0.00 0.00 0.00 0.00 0.01 0.01 0.00 0.00 0.00 0.01 0.00 0.00 0.00 0.02 0.04 0.00 0.00 0.00
0.53 0.46 0.47 0.56 0.62 0.94 1.32 1.07 0.72 0.72 1.03 0.93 0.43 0.40 0.44 0.38 0.37 0.35 0.26 0.21 0.14 0.04 0.02 0.01 0.00 0.00 0.00 0.00 0.00 0.00 0.00 0.00 0.00 0.01 0.05 0.06 0.05 0.04 0.03 0.07 0.04 0.00 0.00 0.00
0.44 0.48 0.35 0.42 0.64 0.90 1.03 0.91 0.62 0.62 0.83 0.76 0.39 0.32 0.30 0.28 0.21 0.19 0.15 0.09 0.05 0.01 0.00 0.00 0.00 0.00 0.00 0.00 0.00 0.00 0.01 0.02 0.01 0.02 0.06 0.05 0.02 0.01 0.00 0.00 0.00 0.00 0.00 0.00
0.35 0.47 0.43 0.44 0.63 0.69 0.62 0.57 0.47 0.43 0.63 0.62 0.25 0.18 0.18 0.16 0.10 0.06 0.05 0.02 0.00 0.00 0.00 0.00 0.00 0.00 0.00 0.00 0.00 0.00 0.00 0.00 0.00 0.00 0.00 0.00 0.00 0.00 0.00 0.00 0.00 0.00 0.00 0.00
0.30 0.58 0.59 0.68 0.58 0.54 0.49 0.38 0.34 0.38 0.55 0.48 0.28 0.16 0.09 0.03 0.00 0.00 0.01 0.00 0.00 0.00 0.00 0.00 0.00 0.00 0.00 0.00 0.00 0.00 0.00 0.00 0.00 0.00 0.00 0.00 0.00 0.00 0.00 0.00 0.00 0.00 0.01 0.05
0.30 0.46 0.59 0.50 0.53 0.51 0.46 0.38 0.36 0.36 0.42 0.38 0.22 0.05 0.02 0.00 0.00 0.00 0.00 0.00 0.00 0.00 0.00 0.00 0.00 0.00 0.00 0.00 0.00 0.00 0.00 0.00 0.00 0.00 0.00 0.00 0.00 0.00 0.00 0.00 0.00 0.02 0.15 0.15
0.39 0.38 0.45 0.44 0.45 0.43 0.39 0.38 0.33 0.21 0.22 0.20 0.07 0.02 0.00 0.00 0.00 0.00 0.00 0.00 0.00 0.00 0.00 0.00 0.00 0.00 0.00 0.00 0.00 0.00 0.00 0.00 0.00 0.00 0.00 0.00 0.00 0.00 0.00 0.00 0.01 0.03 0.02 0.00
0.39 0.33 0.34 0.32 0.28 0.19 0.15 0.19 0.10 0.04 0.04 0.02 0.02 0.01 0.00 0.00 0.00 0.00 0.00 0.00 0.00 0.00 0.00 0.00 0.00 0.00 0.00 0.00 0.00 0.00 0.00 0.00 0.00 0.00 0.00 0.00 0.00 0.00 0.00 0.00 0.00 0.00 0.00 0.00
0.34 0.26 0.21 0.17 0.14 0.10 0.11 0.07 0.02 0.00 0.00 0.00 0.00 0.00 0.00 0.00 0.00 0.00 0.00 0.00 0.00 0.00 0.00 0.00 0.00 0.00 0.00 0.00 0.00 0.00 0.00 0.00 0.00 0.00 0.00 0.00 0.00 0.01 0.00 0.00 0.00 0.00 0.00 0.00
0.15 0.07 0.07 0.03 0.02 0.01 0.00 0.00 0.00 0.00 0.00 0.00 0.00 0.00 0.00 0.00 0.00 0.00 0.00 0.00 0.00 0.00 0.00 0.00 0.00 0.00 0.00 0.00 0.00 0.00 0.00 0.00 0.00 0.00 0.00 0.00 0.00 0.00 0.00 0.00 0.00 0.00 0.00 0.00
0.02 0.02 0.01 0.00 0.00 0.00 0.00 0.00 0.00 0.00 0.00 0.00 0.00 0.00 0.00 0.00 0.00 0.00 0.00 0.00 0.00 0.00 0.00 0.00 0.00 0.00 0.00 0.00 0.00 0.00 0.00 0.00 0.00 0.00 0.00 0.00 0.00 0.00 0.00 0.00 0.00 0.00 0.00 0.00
0.00 0.00 0.00 0.00 0.00 0.00 0.00 0.00 0.00 0.00 0.00 0.00 0.00 0.00 0.00 0.00 0.00 0.00 0.00 0.01 0.00 0.00 0.00 0.00 0.00 0.00 0.00 0.00 0.00 0.00 0.00 0.00 0.00 0.00 0.01 0.02 0.01 0.00 0.00 0.00 0.00 0.00 0.00 0.00
0.00 0.00 0.00 0.00 0.00 0.00 0.00 0.00 0.00 0.00 0.00 0.00 0.00 0.00 0.00 0.00 0.00 0.00 0.00 0.00 0.01 0.02 0.00 0.01 0.01 0.01 0.00 0.00 0.00 0.00 0.00 0.00 0.00 0.00 0.01 0.00 0.00 0.00 0.00 0.00 0.00 0.00 0.00 0.00
0.00 0.00 0.00 0.00 0.00 0.00 0.00 0.00 0.00 0.00 0.00 0.00 0.00 0.00 0.00 0.00 0.00 0.00 0.00 0.00 0.00 0.00 0.01 0.06 0.02 0.05 0.07 0.05 0.05 0.05 0.03 0.02 0.01 0.00 0.00 0.00 0.00 0.00 0.02 0.03 0.04 0.05 0.06 0.06
0.00 0.00 0.00 0.00 0.00 0.00 0.00 0.00 0.00 0.00 0.00 0.00 0.00 0.00 0.00 0.00 0.00 0.00 0.00 0.00 0.00 0.00 0.02 0.02 0.02 0.12 0.20 0.22 0.22 0.20 0.12 0.03 0.01 0.01 0.00 0.01 0.03 0.06 0.12 0.11 0.10 0.07 0.04 0.02
0.00 0.00 0.00 0.00 0.00 0.00 0.00 0.00 0.00 0.00 0.00 0.00 0.00 0.00 0.00 0.00 0.00 0.00 0.00 0.00 0.00 0.01 0.01 0.01 0.01 0.04 0.05 0.08 0.06 0.06 0.03 0.01 0.02 0.03 0.03 0.02 0.02 0.01 0.01 0.02 0.01 0.01 0.00 0.00
0.00 0.00 0.00 0.00 0.00 0.00 0.00 0.00 0.00 0.00 0.00 0.00 0.00 0.00 0.00 0.00 0.00 0.00 0.00 0.00 0.00 0.00 0.01 0.02 0.08 0.04 0.05 0.07 0.03 0.04 0.05 0.06 0.05 0.03 0.01 0.00 0.00 0.00 0.00 0.00 0.00 0.00 0.00 0.00
0.00 0.00 0.00 0.00 0.00 0.00 0.00 0.00 0.00 0.00 0.00 0.00 0.00 0.00 0.00 0.00 0.00 0.00 0.00 0.00 0.00 0.00 0.01 0.01 0.01 0.00 0.00 0.01 0.04 0.04 0.03 0.03 0.03 0.02 0.02 0.01 0.01 0.00 0.00 0.00 0.01 0.01 0.02 0.02
0.00 0.00 0.00 0.00 0.00 0.00 0.00 0.00 0.00 0.00 0.00 0.00 0.00 0.00 0.00 0.00 0.00 0.00 0.00 0.00 0.00 0.00 0.00 0.00 0.00 0.01 0.02 0.02 0.01 0.01 0.02 0.03 0.03 0.02 0.01 0.00 0.00 0.00 0.00 0.02 0.02 0.01 0.04 0.05

GFSNW_prec_precacc12_222.txt.gz
Total_Precipitation_Accumulation
0.55 0.37 0.30 0.32 0.18 0.08 0.08 0.08 0.11 0.03 0.03 0.12 0.12 0.06 0.01 0.00 0.00 0.00 0.00 0.00 0.00 0.00 0.00 0.01 0.01 0.00 0.00 0.00 0.00 0.01 0.01 0.03 0.02 0.00 0.00 0.00 0.00 0.00 0.01 0.28 0.12 0.16 0.23 0.09
0.56 0.59 0.46 0.28 0.17 0.10 0.06 0.14 0.11 0.17 0.15 0.10 0.08 0.04 0.01 0.00 0.00 0.01 0.02 0.01 0.00 0.00 0.00 0.03 0.02 0.00 0.00 0.00 0.01 0.02 0.02 0.07 0.05 0.01 0.00 0.00 0.00 0.00 0.00 0.10 0.22 0.17 0.21 0.07
0.64 0.66 0.71 0.42 0.17 0.11 0.08 0.18 0.16 0.21 0.28 0.11 0.03 0.02 0.01 0.01 0.01 0.02 0.02 0.03 0.02 0.02 0.04 0.04 0.10 0.05 0.02 0.01 0.02 0.08 0.07 0.12 0.02 0.01 0.00 0.01 0.04 0.01 0.04 0.20 0.29 0.12 0.10 0.05
0.74 0.98 1.01 0.80 0.27 0.16 0.22 0.39 0.26 0.10 0.14 0.10 0.03 0.02 0.08 0.06 0.03 0.09 0.12 0.13 0.04 0.06 0.29 0.17 0.07 0.03 0.06 0.08 0.14 0.11 0.16 0.18 0.02 0.00 0.00 0.01 0.05 0.08 0.10 0.18 0.14 0.29 0.11 0.02
0.73 0.99 1.56 1.30 0.86 0.37 0.67 0.64 0.35 0.20 0.11 0.05 0.05 0.13 0.13 0.05 0.04 0.18 0.24 0.14 0.07 0.12 0.22 0.12 0.15 0.14 0.14 0.15 0.09 0.08 0.13 0.17 0.02 0.00 0.00 0.00 0.00 0.00 0.01 0.00 0.01 0.02 0.00 0.00
0.61 0.85 1.12 1.87 2.16 1.17 0.86 0.48 0.22 0.13 0.23 0.18 0.16 0.18 0.10 0.11 0.16 0.38 0.24 0.14 0.25 0.21 0.09 0.18 0.25 0.22 0.19 0.15 0.12 0.13 0.19 0.11 0.08 0.05 0.00 0.00 0.00 0.00 0.00 0.00 0.00 0.00 0.00 0.00
0.51 0.63 0.88 1.24 2.32 2.09 0.61 0.25 0.17 0.35 0.48 0.29 0.16 0.15 0.14 0.21 0.24 0.40 0.32 0.17 0.24 0.22 0.15 0.26 0.25 0.15 0.10 0.07 0.06 0.10 0.20 0.16 0.20 0.10 0.01 0.02 0.00 0.00 0.00 0.00 0.00 0.00 0.00 0.00
0.56 0.55 0.59 0.86 1.43 2.19 1.31 0.49 0.37 0.52 0.61 0.37 0.22 0.19 0.24 0.32 0.42 0.41 0.40 0.30 0.24 0.26 0.21 0.19 0.13 0.05 0.02 0.02 0.03 0.08 0.09 0.10 0.08 0.04 0.01 0.00 0.00 0.00 0.00 0.00 0.00 0.00 0.00 0.00
0.64 0.56 0.50 0.49 0.82 1.44 2.09 1.06 0.47 0.44 0.60 0.50 0.19 0.24 0.32 0.38 0.46 0.51 0.46 0.36 0.27 0.18 0.19 0.17 0.12 0.02 0.00 0.00 0.00 0.00 0.03 0.02 0.02 0.01 0.01 0.01 0.00 0.00 0.00 0.02 0.03 0.00 0.00 0.00
0.75 0.65 0.51 0.49 0.56 1.04 1.84 1.41 0.74 0.70 1.04 0.89 0.38 0.38 0.44 0.43 0.48 0.51 0.41 0.35 0.27 0.16 0.12 0.09 0.04 0.00 0.00 0.00 0.00 0.00 0.00 0.00 0.01 0.00 0.00 0.01 0.02 0.01 0.02 0.04 0.03 0.00 0.00 0.00
0.65 0.74 0.50 0.46 0.67 1.13 1.65 1.27 0.77 0.67 0.96 0.92 0.46 0.37 0.38 0.38 0.38 0.40 0.34 0.26 0.21 0.10 0.05 0.03 0.01 0.00 0.00 0.00 0.00 0.00 0.00 0.00 0.00 0.00 0.00 0.01 0.00 0.00 0.00 0.00 0.00 0.00 0.00 0.00
0.48 0.65 0.62 0.56 0.76 1.11 1.07 0.85 0.73 0.54 0.85 0.95 0.46 0.31 0.32 0.28 0.23 0.21 0.22 0.14 0.02 0.01 0.01 0.01 0.00 0.00 0.00 0.00 0.00 0.00 0.00 0.00 0.00 0.00 0.00 0.00 0.00 0.00 0.00 0.00 0.00 0.00 0.00 0.00
0.40 0.67 0.76 0.86 0.87 1.02 0.82 0.56 0.52 0.67 1.02 0.87 0.51 0.35 0.24 0.13 0.09 0.07 0.10 0.03 0.00 0.00 0.00 0.00 0.00 0.00 0.00 0.00 0.00 0.00 0.00 0.00 0.00 0.00 0.00 0.00 0.00 0.00 0.00 0.00 0.00 0.00 0.01 0.05
0.40 0.57 0.81 0.85 0.96 0.90 0.77 0.60 0.62 0.65 0.77 0.70 0.53 0.27 0.16 0.06 0.03 0.03 0.02 0.01 0.00 0.00 0.00 0.00 0.00 0.00 0.00 0.00 0.00 0.00 0.00 0.00 0.00 0.00 0.00 0.00 0.00 0.00 0.00 0.00 0.00 0.00 0.10 0.13
0.50 0.59 0.72 0.71 0.68 0.65 0.65 0.65 0.64 0.46 0.46 0.56 0.34 0.15 0.06 0.02 0.00 0.00 0.00 0.00 0.00 0.00 0.00 0.00 0.00 0.00 0.00 0.00 0.00 0.00 0.00 0.00 0.00 0.00 0.00 0.00 0.00 0.00 0.00 0.00 0.00 0.00 0.00 0.00
0.52 0.56 0.59 0.59 0.52 0.39 0.34 0.50 0.41 0.25 0.23 0.27 0.21 0.09 0.02 0.00 0.00 0.00 0.00 0.00 0.00 0.00 0.00 0.00 0.00 0.00 0.00 0.00 0.00 0.00 0.00 0.00 0.00 0.00 0.00 0.00 0.00 0.00 0.00 0.00 0.00 0.00 0.00 0.00
0.61 0.63 0.58 0.48 0.41 0.33 0.33 0.23 0.13 0.07 0.08 0.15 0.10 0.04 0.01 0.00 0.00 0.00 0.00 0.00 0.00 0.00 0.00 0.00 0.00 0.00 0.00 0.00 0.00 0.00 0.00 0.00 0.00 0.00 0.00 0.00 0.00 0.00 0.00 0.00 0.00 0.00 0.00 0.00
0.60 0.47 0.37 0.28 0.21 0.17 0.11 0.03 0.03 0.03 0.04 0.06 0.05 0.02 0.00 0.00 0.00 0.00 0.00 0.00 0.00 0.00 0.00 0.00 0.00 0.00 0.00 0.00 0.00 0.00 0.00 0.00 0.00 0.00 0.00 0.00 0.00 0.00 0.00 0.00 0.00 0.00 0.00 0.00
0.29 0.20 0.15 0.11 0.08 0.06 0.02 0.01 0.00 0.00 0.01 0.01 0.00 0.00 0.00 0.00 0.00 0.00 0.00 0.00 0.00 0.00 0.00 0.00 0.00 0.00 0.00 0.00 0.00 0.00 0.00 0.00 0.00 0.00 0.00 0.00 0.00 0.00 0.00 0.01 0.01 0.01 0.00 0.00
0.10 0.07 0.05 0.04 0.02 0.00 0.00 0.00 0.00 0.00 0.00 0.00 0.00 0.00 0.00 0.00 0.00 0.00 0.00 0.00 0.00 0.00 0.00 0.00 0.00 0.00 0.00 0.00 0.00 0.00 0.00 0.00 0.00 0.00 0.01 0.02 0.01 0.00 0.00 0.00 0.00 0.00 0.00 0.00
0.05 0.02 0.01 0.00 0.00 0.00 0.00 0.00 0.00 0.00 0.00 0.00 0.00 0.00 0.00 0.00 0.00 0.00 0.00 0.00 0.01 0.01 0.00 0.01 0.01 0.01 0.00 0.00 0.00 0.00 0.00 0.00 0.00 0.00 0.01 0.00 0.00 0.00 0.00 0.00 0.00 0.00 0.01 0.01
0.01 0.00 0.00 0.00 0.00 0.00 0.00 0.00 0.00 0.00 0.00 0.00 0.00 0.00 0.00 0.00 0.00 0.00 0.00 0.00 0.00 0.00 0.01 0.04 0.01 0.02 0.02 0.02 0.04 0.04 0.03 0.02 0.01 0.00 0.00 0.01 0.01 0.02 0.02 0.03 0.05 0.07 0.08 0.09
0.00 0.00 0.00 0.00 0.00 0.00 0.00 0.00 0.00 0.00 0.00 0.00 0.00 0.00 0.00 0.00 0.00 0.00 0.00 0.00 0.00 0.00 0.02 0.01 0.00 0.00 0.03 0.06 0.06 0.08 0.04 0.01 0.02 0.04 0.05 0.06 0.06 0.08 0.13 0.12 0.11 0.08 0.04 0.02
0.00 0.00 0.00 0.00 0.00 0.00 0.00 0.00 0.00 0.00 0.00 0.00 0.00 0.00 0.00 0.00 0.00 0.00 0.00 0.00 0.00 0.01 0.01 0.00 0.00 0.00 0.01 0.04 0.05 0.05 0.03 0.04 0.07 0.09 0.09 0.07 0.05 0.03 0.02 0.02 0.01 0.01 0.00 0.00
0.00 0.00 0.00 0.00 0.00 0.00 0.00 0.00 0.00 0.00 0.00 0.00 0.00 0.00 0.00 0.00 0.00 0.00 0.00 0.00 0.00 0.00 0.00 0.00 0.00 0.01 0.03 0.04 0.03 0.04 0.06 0.07 0.06 0.05 0.03 0.01 0.00 0.00 0.00 0.00 0.00 0.00 0.01 0.01
0.00 0.00 0.00 0.00 0.00 0.00 0.00 0.00 0.00 0.00 0.00 0.00 0.00 0.00 0.00 0.00 0.00 0.00 0.00 0.00 0.00 0.00 0.00 0.00 0.00 0.00 0.00 0.02 0.04 0.05 0.03 0.04 0.04 0.03 0.02 0.01 0.01 0.00 0.00 0.00 0.01 0.01 0.03 0.03
0.00 0.00 0.00 0.00 0.00 0.00 0.00 0.00 0.00 0.00 0.00 0.00 0.00 0.00 0.00 0.00 0.00 0.00 0.00 0.00 0.00 0.00 0.00 0.00 0.00 0.02 0.03 0.02 0.01 0.02 0.02 0.03 0.03 0.02 0.01 0.01 0.00 0.00 0.00 0.02 0.02 0.01 0.03 0.05

GFSNW_prec_precacc12_225.txt.gz
Total_Precipitation_Accumulation
0.49 0.38 0.38 0.46 0.60 0.45 0.34 0.16 0.12 0.04 0.06 0.12 0.10 0.05 0.01 0.00 0.00 0.00 0.00 0.00 0.00 0.00 0.00 0.01 0.00 0.00 0.00 0.00 0.00 0.01 0.01 0.03 0.01 0.00 0.00 0.00 0.00 0.00 0.01 0.22 0.08 0.10 0.14 0.06
0.45 0.56 0.50 0.46 0.52 0.68 0.47 0.21 0.08 0.13 0.13 0.07 0.05 0.03 0.01 0.00 0.00 0.00 0.01 0.01 0.00 0.00 0.00 0.02 0.02 0.00 0.00 0.00 0.01 0.02 0.02 0.06 0.05 0.01 0.00 0.00 0.00 0.00 0.00 0.08 0.18 0.15 0.17 0.06
0.44 0.57 0.78 0.59 0.47 0.68 0.47 0.23 0.14 0.23 0.24 0.09 0.02 0.01 0.01 0.01 0.00 0.00 0.01 0.01 0.01 0.01 0.03 0.03 0.08 0.04 0.02 0.01 0.02 0.08 0.08 0.15 0.03 0.01 0.00 0.02 0.06 0.02 0.04 0.14 0.24 0.09 0.07 0.02
0.46 0.66 0.97 0.95 0.52 0.58 0.68 0.31 0.13 0.06 0.12 0.09 0.04 0.02 0.02 0.02 0.01 0.02 0.04 0.06 0.02 0.05 0.25 0.14 0.05 0.02 0.05 0.07 0.14 0.11 0.17 0.20 0.03 0.00 0.00 0.00 0.04 0.08 0.10 0.15 0.09 0.24 0.07 0.01
0.40 0.58 1.04 1.33 1.01 0.56 1.00 0.31 0.07 0.03 0.02 0.01 0.02 0.04 0.03 0.01 0.00 0.05 0.14 0.10 0.05 0.10 0.18 0.09 0.14 0.14 0.13 0.13 0.08 0.09 0.16 0.21 0.05 0.01 0.00 0.00 0.00 0.00 0.01 0.00 0.01 0.01 0.01 0.00
0.44 0.54 0.69 1.33 1.90 1.29 1.12 0.48 0.05 0.02 0.03 0.02 0.03 0.04 0.02 0.02 0.06 0.20 0.13 0.07 0.17 0.15 0.06 0.15 0.22 0.21 0.17 0.14 0.10 0.11 0.19 0.11 0.06 0.04 0.00 0.00 0.00 0.00 0.00 0.00 0.00 0.00 0.00 0.00
0.43 0.48 0.63 0.87 1.93 2.27 0.85 0.29 0.08 0.07 0.12 0.10 0.04 0.05 0.07 0.11 0.15 0.25 0.22 0.13 0.20 0.20 0.14 0.27 0.28 0.17 0.12 0.09 0.08 0.10 0.18 0.15 0.18 0.08 0.01 0.02 0.00 0.00 0.00 0.00 0.00 0.00 0.00 0.00
0.52 0.47 0.47 0.67 1.12 2.12 1.60 0.46 0.16 0.21 0.26 0.17 0.10 0.13 0.19 0.24 0.31 0.30 0.31 0.25 0.22 0.26 0.23 0.26 0.25 0.13 0.06 0.04 0.05 0.10 0.11 0.15 0.14 0.07 0.02 0.00 0.00 0.00 0.00 0.00 0.00 0.00 0.00 0.00
0.62 0.50 0.41 0.38 0.76 1.43 2.43 1.19 0.38 0.31 0.45 0.39 0.15 0.21 0.28 0.32 0.37 0.41 0.42 0.34 0.27 0.22 0.27 0.33 0.29 0.11 0.02 0.00 0.00 0.02 0.05 0.06 0.10 0.07 0.02 0.00 0.00 0.00 0.00 0.01 0.01 0.00 0.00 0.00
0.68 0.60 0.47 0.39 0.48 1.04 2.14 1.83 0.81 0.59 0.90 0.73 0.30 0.32 0.39 0.40 0.46 0.51 0.42 0.37 0.33 0.24 0.27 0.26 0.15 0.07 0.01 0.00 0.00 0.00 0.01 0.04 0.07 0.04 0.04 0.00 0.00 0.00 0.00 0.00 0.00 0.00 0.00 0.00
0.59 0.68 0.51 0.50 0.62 1.15 1.98 1.71 1.09 0.74 1.01 0.94 0.45 0.35 0.37 0.38 0.39 0.44 0.41 0.36 0.38 0.27 0.21 0.18 0.08 0.02 0.01 0.00 0.00 0.00 0.00 0.01 0.01 0.01 0.03 0.00 0.00 0.00 0.00 0.00 0.00 0.00 0.00 0.00
0.52 0.66 0.67 0.62 0.84 1.28 1.57 1.13 1.05 0.73 1.00 1.10 0.56 0.35 0.36 0.34 0.32 0.34 0.40 0.32 0.12 0.08 0.14 0.10 0.03 0.01 0.00 0.00 0.00 0.00 0.00 0.00 0.00 0.00 0.00 0.00 0.00 0.00 0.00 0.00 0.00 0.00 0.00 0.00
0.48 0.70 0.86 1.00 1.04 1.30 1.26 0.82 0.71 0.94 1.28 1.07 0.63 0.44 0.32 0.22 0.22 0.22 0.28 0.15 0.07 0.08 0.04 0.03 0.03 0.02 0.00 0.01 0.00 0.00 0.00 0.00 0.00 0.00 0.00 0.00 0.00 0.00 0.00 0.00 0.00 0.00 0.00 0.01
0.56 0.69 1.00 1.17 1.39 1.29 1.11 0.86 0.80 0.87 0.94 0.86 0.73 0.44 0.33 0.22 0.16 0.13 0.10 0.07 0.07 0.07 0.04 0.03 0.02 0.00 0.00 0.00 0.00 0.00 0.00 0.00 0.00 0.00 0.00 0.00 0.00 0.00 0.00 0.00 0.00 0.00 0.00 0.01
0.71 0.78 0.96 1.09 1.12 0.97 0.91 0.87 0.89 0.67 0.62 0.79 0.55 0.31 0.24 0.17 0.10 0.08 0.06 0.07 0.06 0.03 0.01 0.00 0.00 0.00 0.00 0.00 0.00 0.00 0.00 0.00 0.00 0.00 0.00 0.00 0.00 0.00 0.00 0.00 0.00 0.00 0.00 0.00
0.66 0.77 0.77 0.70 0.65 0.52 0.54 0.92 0.84 0.55 0.45 0.49 0.41 0.27 0.13 0.07 0.04 0.03 0.02 0.01 0.00 0.00 0.00 0.00 0.00 0.00 0.00 0.00 0.00 0.00 0.00 0.00 0.00 0.00 0.00 0.00 0.00 0.00 0.00 0.00 0.00 0.00 0.00 0.00
0.70 0.78 0.80 0.75 0.74 0.63 0.70 0.55 0.28 0.19 0.20 0.36 0.29 0.16 0.07 0.04 0.02 0.01 0.00 0.00 0.00 0.00 0.00 0.00 0.00 0.00 0.00 0.00 0.00 0.00 0.00 0.00 0.00 0.00 0.00 0.00 0.00 0.00 0.00 0.00 0.00 0.00 0.00 0.01
0.77 0.78 0.75 0.63 0.50 0.45 0.34 0.15 0.10 0.14 0.25 0.28 0.19 0.12 0.03 0.01 0.01 0.00 0.00 0.00 0.00 0.00 0.00 0.00 0.00 0.00 0.00 0.00 0.00 0.00 0.00 0.00 0.00 0.00 0.00 0.00 0.00 0.00 0.00 0.00 0.00 0.01 0.01 0.01
0.51 0.53 0.45 0.35 0.28 0.27 0.18 0.12 0.11 0.08 0.12 0.11 0.03 0.03 0.01 0.00 0.00 0.00 0.00 0.00 0.00 0.00 0.00 0.00 0.00 0.00 0.00 0.00 0.00 0.00 0.00 0.00 0.00 0.00 0.00 0.00 0.00 0.00 0.00 0.01 0.02 0.02 0.01 0.01
0.39 0.35 0.35 0.34 0.20 0.10 0.07 0.06 0.05 0.04 0.01 0.00 0.00 0.00 0.00 0.00 0.00 0.00 0.00 0.00 0.00 0.00 0.00 0.00 0.00 0.00 0.00 0.00 0.00 0.00 0.00 0.00 0.00 0.00 0.01 0.02 0.01 0.01 0.00 0.00 0.00 0.01 0.01 0.01
0.30 0.23 0.16 0.12 0.05 0.04 0.04 0.03 0.02 0.01 0.00 0.00 0.00 0.00 0.00 0.00 0.00 0.00 0.00 0.00 0.00 0.00 0.00 0.00 0.00 0.00 0.00 0.00 0.00 0.00 0.00 0.00 0.00 0.01 0.01 0.01 0.01 0.02 0.04 0.04 0.04 0.03 0.02 0.02
0.10 0.06 0.03 0.02 0.01 0.01 0.01 0.00 0.00 0.00 0.00 0.00 0.00 0.00 0.00 0.00 0.00 0.00 0.00 0.00 0.00 0.00 0.00 0.02 0.00 0.00 0.00 0.00 0.00 0.00 0.00 0.00 0.01 0.00 0.01 0.03 0.07 0.11 0.10 0.09 0.10 0.10 0.08 0.09
0.03 0.03 0.02 0.00 0.00 0.00 0.00 0.00 0.00 0.00 0.00 0.00 0.00 0.00 0.00 0.00 0.00 0.00 0.00 0.00 0.00 0.00 0.01 0.01 0.00 0.00 0.00 0.00 0.00 0.02 0.01 0.00 0.02 0.04 0.07 0.10 0.09 0.10 0.14 0.14 0.12 0.09 0.04 0.03
0.03 0.01 0.00 0.00 0.00 0.00 0.00 0.00 0.00 0.00 0.00 0.00 0.00 0.00 0.00 0.00 0.00 0.00 0.00 0.00 0.00 0.00 0.01 0.00 0.00 0.00 0.00 0.00 0.02 0.03 0.02 0.03 0.06 0.09 0.10 0.08 0.05 0.02 0.02 0.03 0.02 0.02 0.01 0.01
0.00 0.00 0.00 0.00 0.00 0.00 0.00 0.00 0.00 0.00 0.00 0.00 0.00 0.00 0.00 0.00 0.00 0.00 0.00 0.00 0.00 0.00 0.00 0.00 0.00 0.00 0.00 0.01 0.03 0.04 0.05 0.06 0.06 0.05 0.03 0.02 0.00 0.00 0.00 0.00 0.00 0.01 0.01 0.02
0.00 0.00 0.00 0.00 0.00 0.01 0.00 0.00 0.00 0.00 0.00 0.00 0.00 0.00 0.00 0.00 0.00 0.00 0.00 0.00 0.00 0.00 0.00 0.00 0.00 0.00 0.00 0.02 0.04 0.05 0.03 0.04 0.04 0.03 0.02 0.01 0.01 0.00 0.00 0.00 0.02 0.01 0.03 0.03
0.00 0.00 0.00 0.00 0.00 0.00 0.00 0.00 0.00 0.00 0.00 0.00 0.00 0.00 0.00 0.00 0.00 0.00 0.00 0.00 0.00 0.00 0.00 0.00 0.00 0.01 0.02 0.02 0.01 0.01 0.02 0.03 0.03 0.02 0.01 0.01 0.00 0.00 0.00 0.02 0.02 0.01 0.03 0.04

GFSNW_prec_precacc12_228.txt.gz
Total_Precipitation_Accumulation
0.40 0.32 0.38 0.46 0.60 0.47 0.54 0.50 0.23 0.11 0.12 0.26 0.23 0.10 0.01 0.00 0.00 0.00 0.00 0.00 0.00 0.00 0.00 0.00 0.00 0.00 0.00 0.00 0.00 0.00 0.00 0.01 0.00 0.00 0.00 0.00 0.00 0.00 0.00 0.11 0.04 0.08 0.09 0.04
0.38 0.48 0.45 0.46 0.52 0.70 0.61 0.52 0.20 0.27 0.15 0.22 0.15 0.02 0.01 0.00 0.00 0.00 0.00 0.00 0.00 0.00 0.00 0.01 0.01 0.00 0.00 0.00 0.00 0.01 0.01 0.03 0.04 0.02 0.01 0.00 0.00 0.00 0.00 0.05 0.15 0.12 0.11 0.04
0.35 0.45 0.68 0.57 0.47 0.69 0.62 0.52 0.34 0.48 0.36 0.09 0.02 0.01 0.01 0.01 0.00 0.00 0.00 0.00 0.00 0.00 0.00 0.01 0.04 0.03 0.02 0.01 0.01 0.06 0.06 0.12 0.03 0.02 0.01 0.05 0.11 0.03 0.02 0.08 0.20 0.06 0.04 0.01
0.32 0.43 0.69 0.90 0.52 0.61 0.93 0.80 0.41 0.21 0.24 0.09 0.04 0.02 0.01 0.01 0.00 0.00 0.01 0.01 0.00 0.01 0.11 0.09 0.04 0.02 0.05 0.07 0.12 0.10 0.16 0.17 0.02 0.00 0.00 0.00 0.02 0.05 0.06 0.06 0.04 0.13 0.03 0.01
0.29 0.37 0.58 1.06 0.99 0.60 1.39 0.83 0.42 0.12 0.04 0.01 0.03 0.04 0.02 0.01 0.00 0.01 0.03 0.01 0.00 0.03 0.08 0.05 0.10 0.12 0.12 0.14 0.08 0.08 0.15 0.18 0.05 0.01 0.00 0.00 0.00 0.00 0.00 0.01 0.00 0.01 0.00 0.00
0.27 0.33 0.39 0.84 1.58 1.18 1.23 0.94 0.38 0.10 0.04 0.01 0.01 0.02 0.01 0.01 0.02 0.05 0.03 0.02 0.07 0.09 0.04 0.10 0.16 0.17 0.15 0.13 0.09 0.10 0.16 0.11 0.09 0.07 0.01 0.00 0.01 0.00 0.00 0.00 0.00 0.00 0.00 0.00
0.30 0.33 0.36 0.53 1.30 1.88 0.93 0.51 0.36 0.41 0.19 0.03 0.01 0.00 0.01 0.02 0.04 0.10 0.12 0.07 0.12 0.15 0.11 0.23 0.25 0.16 0.11 0.08 0.08 0.09 0.17 0.13 0.22 0.14 0.06 0.06 0.00 0.00 0.00 0.00 0.00 0.00 0.00 0.00
0.36 0.38 0.30 0.40 0.71 1.48 1.35 0.50 0.27 0.34 0.30 0.10 0.01 0.02 0.05 0.09 0.15 0.18 0.19 0.16 0.16 0.20 0.21 0.26 0.26 0.14 0.07 0.04 0.05 0.10 0.09 0.15 0.26 0.19 0.07 0.01 0.00 0.00 0.00 0.00 0.00 0.00 0.00 0.00
0.44 0.39 0.33 0.25 0.45 0.88 1.97 1.00 0.42 0.29 0.31 0.20 0.03 0.04 0.11 0.17 0.25 0.29 0.32 0.28 0.24 0.21 0.27 0.35 0.34 0.16 0.05 0.04 0.01 0.03 0.07 0.09 0.21 0.20 0.10 0.01 0.00 0.00 0.00 0.00 0.00 0.00 0.00 0.00
0.50 0.47 0.35 0.25 0.28 0.71 1.72 1.54 0.75 0.56 0.76 0.49 0.13 0.13 0.19 0.22 0.31 0.40 0.37 0.32 0.31 0.25 0.30 0.32 0.22 0.12 0.03 0.04 0.01 0.01 0.01 0.07 0.15 0.13 0.16 0.02 0.00 0.00 0.00 0.00 0.00 0.00 0.00 0.00
0.47 0.54 0.40 0.34 0.36 0.86 1.72 1.51 1.20 0.87 1.00 0.84 0.31 0.20 0.25 0.29 0.35 0.41 0.40 0.36 0.41 0.31 0.28 0.29 0.18 0.10 0.05 0.00 0.00 0.00 0.00 0.02 0.04 0.05 0.12 0.03 0.00 0.00 0.00 0.00 0.00 0.00 0.00 0.00
0.40 0.48 0.49 0.44 0.59 1.03 1.46 1.10 1.14 1.15 1.24 1.21 0.58 0.31 0.32 0.31 0.32 0.35 0.43 0.35 0.16 0.14 0.26 0.22 0.13 0.09 0.04 0.01 0.02 0.00 0.00 0.00 0.01 0.00 0.00 0.00 0.00 0.00 0.00 0.00 0.00 0.00 0.00 0.00
0.42 0.54 0.66 0.71 0.81 1.12 1.28 0.87 0.69 1.20 1.75 1.25 0.74 0.50 0.36 0.27 0.29 0.30 0.38 0.22 0.13 0.20 0.17 0.18 0.18 0.10 0.03 0.04 0.02 0.00 0.00 0.00 0.00 0.00 0.00 0.00 0.00 0.00 0.00 0.00 0.00 0.00 0.00 0.00
0.51 0.59 0.82 1.01 1.25 1.20 1.17 0.95 0.86 1.03 1.20 1.02 0.88 0.56 0.43 0.30 0.24 0.22 0.19 0.15 0.16 0.24 0.25 0.23 0.16 0.05 0.01 0.00 0.00 0.00 0.00 0.00 0.00 0.00 0.00 0.00 0.00 0.00 0.00 0.00 0.00 0.00 0.00 0.00
0.59 0.66 0.82 0.97 1.05 1.04 1.04 0.97 1.03 0.87 0.78 0.96 0.65 0.40 0.36 0.27 0.19 0.20 0.22 0.22 0.23 0.22 0.17 0.10 0.04 0.01 0.00 0.00 0.00 0.00 0.00 0.00 0.00 0.00 0.00 0.00 0.00 0.00 0.00 0.00 0.00 0.00 0.00 0.00
0.61 0.74 0.80 0.77 0.73 0.66 0.69 1.18 1.18 0.83 0.64 0.68 0.56 0.42 0.28 0.21 0.19 0.19 0.18 0.16 0.13 0.09 0.04 0.02 0.00 0.00 0.00 0.00 0.00 0.00 0.00 0.00 0.00 0.00 0.00 0.00 0.00 0.00 0.00 0.00 0.00 0.00 0.00 0.00
0.76 0.85 0.95 0.95 0.91 0.81 0.99 0.90 0.53 0.46 0.40 0.57 0.45 0.27 0.16 0.13 0.11 0.10 0.08 0.04 0.02 0.01 0.00 0.00 0.00 0.00 0.00 0.00 0.00 0.00 0.00 0.00 0.00 0.00 0.00 0.00 0.00 0.00 0.00 0.00 0.00 0.00 0.00 0.01
0.97 1.13 1.18 1.08 0.88 0.82 0.73 0.33 0.15 0.26 0.47 0.56 0.37 0.24 0.08 0.05 0.06 0.04 0.01 0.00 0.00 0.00 0.00 0.00 0.00 0.00 0.00 0.00 0.00 0.00 0.00 0.00 0.00 0.00 0.00 0.00 0.00 0.00 0.00 0.00 0.00 0.02 0.02 0.02
0.64 0.86 0.82 0.66 0.54 0.57 0.43 0.27 0.28 0.28 0.41 0.37 0.12 0.05 0.03 0.01 0.03 0.02 0.01 0.00 0.00 0.00 0.00 0.00 0.00 0.00 0.00 0.00 0.00 0.00 0.00 0.00 0.00 0.00 0.00 0.00 0.00 0.00 0.01 0.02 0.03 0.04 0.03 0.03
0.58 0.79 0.80 0.73 0.47 0.25 0.19 0.22 0.27 0.29 0.23 0.09 0.02 0.00 0.01 0.02 0.02 0.01 0.00 0.00 0.00 0.00 0.00 0.00 0.00 0.00 0.00 0.00 0.00 0.00 0.00 0.00 0.00 0.00 0.01 0.01 0.02 0.01 0.01 0.02 0.03 0.04 0.07 0.06
0.57 0.58 0.45 0.40 0.26 0.21 0.23 0.25 0.22 0.16 0.10 0.03 0.00 0.00 0.02 0.00 0.00 0.00 0.00 0.00 0.00 0.00 0.00 0.00 0.00 0.00 0.00 0.00 0.00 0.00 0.00 0.00 0.00 0.00 0.01 0.01 0.02 0.03 0.05 0.06 0.07 0.07 0.05 0.06
0.21 0.12 0.15 0.17 0.12 0.13 0.12 0.07 0.02 0.01 0.00 0.00 0.00 0.00 0.00 0.00 0.00 0.00 0.00 0.00 0.00 0.00 0.00 0.01 0.00 0.00 0.00 0.00 0.00 0.00 0.00 0.00 0.00 0.00 0.01 0.03 0.08 0.11 0.10 0.10 0.10 0.09 0.07 0.09
0.07 0.08 0.08 0.06 0.05 0.05 0.01 0.00 0.00 0.00 0.00 0.00 0.00 0.00 0.00 0.00 0.00 0.00 0.00 0.00 0.00 0.00 0.01 0.00 0.00 0.00 0.00 0.00 0.00 0.00 0.00 0.00 0.01 0.04 0.07 0.09 0.07 0.06 0.08 0.07 0.06 0.04 0.03 0.02
0.11 0.09 0.04 0.03 0.01 0.00 0.00 0.00 0.00 0.00 0.00 0.00 0.00 0.00 0.00 0.00 0.00 0.00 0.00 0.00 0.00 0.00 0.00 0.00 0.01 0.00 0.00 0.00 0.00 0.01 0.02 0.03 0.06 0.07 0.08 0.06 0.03 0.01 0.00 0.01 0.01 0.01 0.01 0.01
0.05 0.02 0.01 0.00 0.01 0.00 0.00 0.00 0.00 0.00 0.00 0.00 0.00 0.00 0.00 0.00 0.00 0.00 0.00 0.00 0.00 0.00 0.00 0.00 0.00 0.00 0.00 0.00 0.01 0.03 0.05 0.05 0.06 0.05 0.03 0.02 0.00 0.00 0.00 0.00 0.00 0.01 0.01 0.02
0.00 0.00 0.01 0.01 0.01 0.02 0.00 0.00 0.00 0.00 0.00 0.00 0.00 0.00 0.00 0.00 0.00 0.00 0.00 0.00 0.00 0.00 0.00 0.00 0.00 0.00 0.00 0.02 0.03 0.04 0.03 0.02 0.03 0.02 0.02 0.01 0.00 0.00 0.00 0.00 0.02 0.01 0.03 0.02
0.01 0.02 0.01 0.01 0.01 0.01 0.00 0.00 0.00 0.00 0.00 0.00 0.00 0.00 0.00 0.00 0.00 0.00 0.00 0.00 0.00 0.00 0.00 0.00 0.00 0.01 0.01 0.01 0.01 0.01 0.00 0.01 0.01 0.01 0.00 0.00 0.00 0.00 0.00 0.01 0.01 0.01 0.02 0.02